Weather History for KOJC - February, 2014

Change the Weather History Date:

Wednesday, February 12, 2014

  Actual Average Record
Temperature  
Mean Temperature 19 °F 34 °F  
Max Temperature 30 °F 44 °F 73 °F (1962)
Min Temperature 7 °F 24 °F -7 °F (1944)
Degree Days  
Heating Degree Days 46 31  
Month to date heating degree days 598 389  
Since 1 July heating degree days 3985 3437  
Cooling Degree Days 0 0  
Month to date cooling degree days 0 0  
Year to date cooling degree days 0 0  
Moisture  
Dew Point 12 °F    
Average Humidity 66    
Maximum Humidity 81    
Minimum Humidity 50    
Precipitation  
Precipitation 0.00 in 0.06 in 0.57 in (2007)
Month to date precipitation 0.27 0.67  
Year to date precipitation 0.30 1.79  
Sea Level Pressure  
Sea Level Pressure 30.10 in    
Wind  
Wind Speed 5 mph (SW)    
Max Wind Speed 10 mph    
Max Gust Speed 14 mph    
Visibility 9 miles    
Events      
T = Trace of Precipitation, MM = Missing Value Source: NWS Daily Summary

Daily Weather History Graph

Daily Weather History Graph

Search for Another Location

Airport or City:

Trip Planner

Search our weather history database for the weather conditions in past years. The results will help you decide how hot, cold, wet, or windy it might be!

Date:

Astronomy

Feb. 12, 2014 Rise Set
Actual Time 7:13 AM CST 5:53 PM CST
Civil Twilight 6:46 AM CST 6:20 PM CST
Nautical Twilight 6:14 AM CST 6:51 PM CST
Astronomical Twilight 5:43 AM CST 7:22 PM CST
Moon 4:08 PM CST (2/12) 5:30 AM CST (2/12)
Length of Visible Light 11h 34m
Length of Day
10h 39m
Waxing Gibbous, 95% of the Moon is Illuminated
Feb 12
Waxing Gibbous
Feb 14
Full
Feb 22
Last Quarter
Mar 1
New
Mar 8
First Quarter

Hourly Weather History & Observations

Time (CST) Temp. Windchill Dew Point Humidity Pressure Visibility Wind Dir Wind Speed Gust Speed Precip Events Conditions
12:53 AM 7.0 °F -5.7 °F -2.0 °F 67% 30.27 in 10.0 mi South 8.1 mph - N/A   Clear
1:53 AM 8.1 °F -0.5 °F -0.9 °F 67% 30.24 in 10.0 mi South 4.6 mph - N/A   Clear
2:53 AM 10.0 °F 0.4 °F -0.0 °F 64% 30.22 in 10.0 mi South 5.8 mph - N/A   Clear
3:53 AM 12.0 °F 2.7 °F 1.9 °F 64% 30.20 in 10.0 mi SSW 5.8 mph - N/A   Clear
4:53 AM 12.9 °F 5.2 °F 3.0 °F 65% 30.17 in 10.0 mi South 4.6 mph - N/A   Clear
5:53 AM 14.0 °F 8.2 °F 3.0 °F 62% 30.17 in 10.0 mi SSW 3.5 mph - N/A   Clear
6:53 AM 15.1 °F 6.4 °F 3.9 °F 61% 30.17 in 10.0 mi SSW 5.8 mph - N/A   Clear
7:53 AM 15.1 °F 5.2 °F 3.9 °F 61% 30.16 in 10.0 mi SSW 6.9 mph - N/A   Clear
8:53 AM 18.0 °F 6.1 °F 6.1 °F 60% 30.13 in 10.0 mi South 10.4 mph - N/A   Scattered Clouds
9:53 AM 21.0 °F 11.4 °F 8.1 °F 57% 30.14 in 10.0 mi South 8.1 mph - N/A   Overcast
10:53 AM 27.0 °F 18.0 °F 10.9 °F 51% 30.13 in 10.0 mi SW 9.2 mph - N/A   Partly Cloudy
11:53 AM 28.0 °F 21.7 °F 15.1 °F 58% 30.10 in 10.0 mi Variable 5.8 mph - N/A   Overcast
12:53 PM 28.0 °F 21.7 °F 15.1 °F 58% 30.09 in 10.0 mi West 5.8 mph - N/A   Overcast
1:53 PM 28.9 °F 22.8 °F 16.0 °F 58% 30.06 in 10.0 mi WSW 5.8 mph - N/A   Scattered Clouds
2:53 PM 30.0 °F 23.2 °F 17.1 °F 59% 30.06 in 10.0 mi WSW 6.9 mph - N/A   Overcast
3:53 PM 28.9 °F 21.9 °F 19.0 °F 67% 30.06 in 9.0 mi NNW 6.9 mph - N/A   Overcast
4:53 PM 28.9 °F 22.8 °F 18.0 °F 64% 30.06 in 9.0 mi NW 5.8 mph - N/A   Overcast
5:53 PM 28.0 °F 24.2 °F 19.0 °F 69% 30.06 in 8.0 mi WNW 3.5 mph - N/A   Overcast
6:53 PM 27.0 °F - 19.0 °F 72% 30.04 in 9.0 mi Calm Calm - N/A   Overcast
7:53 PM 27.0 °F 23.0 °F 19.0 °F 72% 30.05 in 9.0 mi West 3.5 mph - N/A   Overcast
8:53 PM 27.0 °F - 19.0 °F 72% 30.06 in 8.0 mi Calm Calm - N/A   Overcast
9:53 PM 26.1 °F - 19.0 °F 75% 30.03 in 8.0 mi Calm Calm - N/A   Mostly Cloudy
10:46 PM 24.1 °F - 19.0 °F 81% 29.98 in 7.0 mi Calm Calm - N/A   Scattered Clouds
10:53 PM 24.1 °F 19.7 °F 19.0 °F 81% 30.02 in 7.0 mi WNW 3.5 mph - N/A   Scattered Clouds
11:03 PM 26.1 °F - 19.9 °F 78% 29.98 in 7.0 mi Calm Calm - N/A   Mostly Cloudy
11:26 PM 25.0 °F - 19.0 °F 78% 29.96 in 6.0 mi Calm Calm - N/A   Haze
11:53 PM 23.0 °F 18.4 °F 18.0 °F 81% 29.99 in 6.0 mi South 3.5 mph - N/A   Haze